This demonstration page uses our WeatherBlox Daily Observations layout. Learn more.

39.92423, -83.80882

Hourly Observations for December 21, 2018

Temp ( °F °C ) Dew Point ( °F °C ) Humidity (%) Winds ( mph kmh ) Pressure ( in mb ) Visibility ( mi km ) Precip ( " mm )
12:56 am 00:56 Cloudy with Rain 42 5.6 41 5 96 96 NW 10 17 29.41 996 9 14.48406 0.11 2.794
1:56 am 01:56 Cloudy with Light Rain 41 5 41 5 100 100 NNW 13 20 29.41 996 10 16.0934 0.08 2.032
2:09 am 02:09 Cloudy with Light Rain 41 5 39 4 93 93 NNW 12 19 29.41 996 10 16.0934 0.01 0.254
2:56 am 02:56 Cloudy with Light Rain 41 5 40 4.4 96 96 NNW 12 19 29.41 996 10 16.0934 0.01 0.254
3:21 am 03:21 Cloudy with Light Rain 39 4 39 4 100 100 NNW 12 19 29.47 998 10 16.0934 0 0.0254
3:28 am 03:28 Cloudy with Light Rain 39 4 39 4 100 100 NNW 12 19 29.47 998 10 16.0934 0 0.0254
3:56 am 03:56 Cloudy 40 4.4 39 3.9 97 97 NNW 14 22 29.4 996 10 16.0934 0 0.0254
4:56 am 04:56 Cloudy 39 3.9 39 3.9 100 100 NNW 13 20 29.4 996 10 16.0934 0 0
5:56 am 05:56 Cloudy 39 3.9 38 3.3 96 96 NNW 13 20 29.41 996 10 16.0934 0 0
6:56 am 06:56 Cloudy 39 3.9 38 3.3 96 96 NNW 10 17 29.41 996 10 16.0934 0 0
7:56 am 07:56 Cloudy 39 3.9 38 3.3 96 96 N 8 13 29.42 996 10 16.0934 0 0
8:56 am 08:56 Cloudy 39 3.9 38 3.3 96 96 NNW 10 17 29.43 997 10 16.0934 0 0
9:43 am 09:43 Cloudy 39 4 39 4 100 100 NNW 10 17 29.47 998 10 16.0934 0 0
9:56 am 09:56 Cloudy 40 4.4 39 3.9 97 97 NNW 10 17 29.43 997 10 16.0934 0 0
10:35 am 10:35 Cloudy with Mist and Fog 39 4 39 4 100 100 NNW 15 24 29.47 998 5 8.0467 0 0
10:56 am 10:56 Cloudy with Mist and Fog 40 4.4 40 4.4 100 100 NNW 12 19 29.43 997 4 6.43736 0 0
11:05 am 11:05 Cloudy with Mist and Fog 39 4 39 4 100 100 NNW 13 20 29.47 998 4 6.43736 0 0
11:38 am 11:38 Cloudy 41 5 41 5 100 100 NNW 13 20 29.41 996 9 14.48406 0 0
11:56 am 11:56 Cloudy 41 5 40 4.4 96 96 NNW 14 22 29.4 996 7 11.26538 0 0
12:45 pm 12:45 Cloudy 41 5 39 4 93 93 NNW 14 22 29.41 996 7 11.26538 0 0
12:56 pm 12:56 Cloudy 41 5 40 4.4 96 96 NNW 15 24 29.39 995 10 16.0934 0 0
1:52 pm 13:52 Cloudy 39 4 39 4 100 100 NNW 15 24 29.44 997 7 11.26538 0 0
1:56 pm 13:56 Cloudy 40 4.4 40 4.4 100 100 NNW 14 22 29.4 996 7 11.26538 0 0
2:56 pm 14:56 Cloudy 40 4.4 40 4.4 100 100 NNW 14 22 29.43 997 7 11.26538 0 0.0254
3:24 pm 15:24 Cloudy 39 4 39 4 100 100 NNW 14 22 29.47 998 10 16.0934 0 0
3:56 pm 15:56 Cloudy 40 4.4 39 3.9 97 97 NW 12 19 29.46 998 10 16.0934 0 0
4:17 pm 16:17 Cloudy with Light Rain 39 4 39 4 100 100 NW 17 28 29.53 1000 3 4.82802 0 0.0254
4:24 pm 16:24 Cloudy with Light Rain 39 4 39 4 100 100 NW 16 26 29.53 1000 2 3.21868 0 0.0254
4:38 pm 16:38 Cloudy with Light Rain 39 4 37 3 93 93 NW 18 30 29.53 1000 5 8.0467 0 0.0254
4:49 pm 16:49 Cloudy with Light Rain 39 4 37 3 93 93 NW 16 26 29.53 1000 3 4.82802 0 0.0254
4:56 pm 16:56 Cloudy with Light Rain 39 3.9 38 3.3 96 96 WNW 15 24 29.5 999 6 9.65604 0 0.0254
5:05 pm 17:05 Cloudy with Light Rain 37 3 37 3 100 100 WNW 17 28 29.53 1000 8 12.87472 0 0.0254
5:56 pm 17:56 Cloudy with Light Rain 37 2.8 37 2.8 100 100 NW 16 26 29.53 1000 5 8.0467 0.01 0.254
6:56 pm 18:56 Cloudy with Light Rain 36 2.2 35 1.7 97 97 WNW 14 22 29.56 1001 9 14.48406 0.01 0.254
7:03 pm 19:03 Cloudy with Light Rain 36 2 36 2 100 100 NW 15 24 29.59 1002 9 14.48406 0 0.0254
7:56 pm 19:56 Cloudy with Light Rain 36 2.2 35 1.7 97 97 WNW 13 20 29.59 1002 10 16.0934 0 0.0254
8:33 pm 20:33 Cloudy 36 2 36 2 100 100 WNW 14 22 29.62 1003 10 16.0934 0.01 0.254
8:56 pm 20:56 Cloudy 36 2.2 35 1.7 97 97 NW 15 24 29.62 1003 10 16.0934 0.01 0.254
9:56 pm 21:56 Cloudy 35 1.7 34 1.1 96 96 NW 15 24 29.63 1003 10 16.0934 0 0
10:33 pm 22:33 Cloudy 36 2 34 1 93 93 WNW 13 20 29.65 1004 10 16.0934 0 0
10:56 pm 22:56 Cloudy 35 1.7 32 0 89 89 WNW 21 33 29.66 1004 10 16.0934 0 0
11:56 pm 23:56 Cloudy 34 1.1 31 -0.6 89 89 WNW 16 26 29.68 1005 10 16.0934 0 0

Powered by AerisWeather